[[{"header":{"parameterUnit":"m.s-1","parameterCategory":1,"la1":30.2991,"la2":30.254,"lo1":-89.0895,"lo2":-89.0444,"dy":0.0017,"dx":0.0017,"nx":28,"ny":28,"refTime":"2025-05-18T09:00:00:Z","depth":0,"parameterNumber":2,"parameterNumberName":"U-component_of_WINDS"},"data":[0,0,0,0,0,0,0,0,0,0,0,0,0,0,0,0,0,0,0,0,0,0,0,0,0,0,0,0,0,0,0,0,0,0,0,0,0,0,0,0,0,0,0,0,0,0,0,0,0,0,0,0,0,0,0,0,0,0,0.8339,0.834,0,0.8391,0.8392,0.8392,0.8388,0.8387,0.8386,0.8385,0.844,0.8442,0.8444,0,0,0,0,0,0,0,0,0,0,0,0,0,0.8237,0.8239,0.8339,0.834,0.8341,0.8391,0.8392,0.8392,0.8388,0.8387,0.8386,0.8385,0.8439,0.8442,0.8444,0,0,0,0,0,0,0,0,0,0,0,0,0,0.8285,0.824,0.8339,0.8344,0.8345,0.8391,0.8392,0.8392,0.8388,0.8387,0.8386,0.8385,0.8438,0.8441,0.8445,0.8489,0,0,0.8455,0.8456,0,0,0,0,0,0,0,0,0.8282,0.8288,0.8343,0.8344,0.8345,0.8382,0.8376,0.8425,0.8388,0.8372,0.8385,0.8384,0.8422,0.8426,0.8438,0.8491,0.8493,0.8455,0.8457,0.8458,0.8459,0,0,0,0,0,0,0,0.8279,0.8286,0.836,0.8344,0.8345,0.8344,0.835,0.8385,0.8403,0.8373,0.8373,0.8379,0.8422,0.8435,0.844,0.8494,0.8455,0.8458,0.846,0.8461,0.8585,0.8586,0,0,0,0,0,0,0.8274,0.8283,0.8358,0.8361,0.831,0.8347,0.8353,0.8371,0.8402,0.8406,0.838,0.8379,0.843,0.8436,0.8442,0.8495,0.8458,0.8461,0.8463,0.8583,0.8585,0.8587,0,0,0,0,0,0,0.8272,0.8281,0.8356,0.8322,0.8332,0.835,0.837,0.8373,0.8386,0.8408,0.8411,0.839,0.843,0.8437,0.8477,0.8496,0.8463,0.8466,0.8582,0.8584,0.8586,0.8601,0,0,0,0,0,0,0.8269,0.828,0.8297,0.8323,0.8334,0.839,0.8372,0.8375,0.8392,0.839,0.8418,0.8422,0.8429,0.8472,0.848,0.85,0.8468,0.858,0.8583,0.8585,0.8599,0.8603,0.8607,0,0,0,0,0,0.8265,0.8299,0.8298,0.8307,0.8355,0.8391,0.8397,0.8405,0.8393,0.841,0.8424,0.8421,0.8493,0.8476,0.8485,0.8507,0.8579,0.8582,0.8585,0.8597,0.8603,0.8607,0,0,0,0,0,0,0.8276,0.8303,0.8301,0.8345,0.8366,0.839,0.8412,0.8411,0.8436,0.8434,0.8443,0.8449,0.8489,0.8502,0.8482,0.855,0.8534,0.8539,0.8541,0.8546,0.855,0.8546,0.8471,0,0,0,0,0,0.8283,0.831,0.8332,0.8369,0.8379,0.8394,0.841,0.8414,0.8436,0.8445,0.8462,0.8484,0.8511,0.8529,0.8556,0.8601,0.8607,0.862,0.8624,0.8628,0.8632,0.8656,0.8662,0.8596,0.8596,0.8596,0,0,0.8299,0.8317,0.8333,0.8371,0.8388,0.8416,0.8401,0.8432,0.8452,0.845,0.8488,0.8501,0.8526,0.8568,0.8588,0.858,0.8651,0.8631,0.8634,0.8636,0.866,0.8666,0.8672,0.8598,0.8598,0.8598,0,0,0.8341,0.8358,0.8389,0.8406,0.8431,0.8441,0.8448,0.8473,0.8481,0.852,0.8518,0.8543,0.8591,0.8609,0.8624,0.8672,0.867,0.8681,0.8702,0.8726,0.8731,0.8736,0.8753,0.8759,0.8685,0.8685,0.8685,0,0.8357,0.8399,0.8406,0.8436,0.8453,0.8451,0.8483,0.8499,0.8532,0.8544,0.8535,0.8594,0.8611,0.8657,0.8668,0.8681,0.869,0.8678,0.873,0.8734,0.8739,0.8755,0.8762,0.8686,0.8686,0.8686,0.8686,0,0.8418,0.8446,0.8469,0.85,0.8519,0.855,0.8562,0.858,0.8583,0.8593,0.8632,0.8652,0.8682,0.8694,0.8696,0.874,0.8735,0.8728,0.8712,0.8746,0.8762,0.8768,0.8687,0.8687,0.8687,0.8686,0,0,0.8469,0.8502,0.8511,0.8524,0.8552,0.8574,0.8605,0.8634,0.865,0.8672,0.8699,0.8738,0.8732,0.8749,0.8754,0.8774,0.8811,0.8765,0.8766,0.8773,0.886,0.8865,0.8872,0.881,0.8811,0.8812,0.8858,0,0.8513,0.8568,0.8575,0.8623,0.865,0.8648,0.8675,0.8695,0.8705,0.8729,0.8741,0.8769,0.8758,0.8769,0.8789,0.8802,0.8829,0.8799,0.8834,0.8835,0.8828,0.888,0.8886,0.8929,0.8864,0.8865,0.8866,0,0.8573,0.8597,0.8648,0.8671,0.8682,0.8706,0.8733,0.8756,0.8779,0.8785,0.8804,0.8806,0.8837,0.882,0.8864,0.8844,0.8858,0.8867,0.8869,0.8873,0.8853,0.8885,0.8942,0.8949,0.8875,0.8875,0.8874,0,0.8605,0.865,0.8686,0.8697,0.8726,0.8742,0.8755,0.8776,0.8793,0.8816,0.8827,0.8855,0.887,0.8891,0.89,0.8886,0.8943,0.8927,0.8949,0.8949,0.8962,0.8961,0.9022,0.8971,0.8971,0.8971,0.8971,0,0.8655,0.8686,0.87,0.8722,0.8757,0.8764,0.8799,0.8811,0.8829,0.8854,0.8854,0.8877,0.8888,0.8913,0.892,0.8955,0.8962,0.8968,0.897,0.8968,0.8967,0.8978,0.8975,0.8973,0.8972,0.8972,0.8972,0,0.8696,0.8707,0.8746,0.8769,0.8775,0.88,0.882,0.8841,0.8851,0.8882,0.889,0.8906,0.8935,0.8946,0.8981,0.8986,0.9027,0.9026,0.9019,0.902,0.9041,0.9039,0.9111,0.9121,0.9064,0.9065,0.9065,0,0.8727,0.875,0.8776,0.8792,0.8805,0.8831,0.8848,0.8857,0.8874,0.8901,0.8919,0.8948,0.8972,0.9018,0.9033,0.906,0.906,0.9083,0.9064,0.9061,0.906,0.9058,0.906,0.9087,0.9087,0.9088,0.9088,0,0.878,0.8784,0.8809,0.8835,0.8855,0.8876,0.8897,0.891,0.8921,0.8941,0.8971,0.8989,0.9025,0.9053,0.9081,0.9094,0.9093,0.9094,0.9101,0.9099,0.9094,0.9097,0.9029,0.9092,0.9092,0.9092,0.9091,0.9091,0.8817,0.8838,0.8859,0.8886,0.8902,0.8921,0.8942,0.8955,0.8979,0.9009,0.9012,0.9044,0.9065,0.9102,0.9116,0.9141,0.9135,0.9144,0.9147,0.9149,0.915,0.909,0.9146,0.9146,0.9146,0.9146,0.9146,0,0.887,0.8883,0.8908,0.8937,0.8958,0.8955,0.8977,0.8995,0.9023,0.9042,0.9065,0.9099,0.9126,0.9143,0.917,0.9187,0.9187,0.9194,0.9193,0.9196,0.9155,0.9146,0.9193,0.9193,0.9193,0.9193,0.9193,0.9193,0.89,0.8935,0.8942,0.8985,0.8998,0.9028,0.9041,0.9059,0.9075,0.9112,0.9135,0.9145,0.9164,0.9192,0.9218,0.9222,0.9232,0.9239,0.9243,0.9204,0.9199,0.9194,0.9186,0.9241,0.9241,0.9282,0.9282,0.9283]},{"header":{"parameterUnit":"m.s-1","parameterCategory":1,"la1":30.2991,"la2":30.254,"lo1":-89.0895,"lo2":-89.0444,"dy":0.0017,"dx":0.0017,"nx":28,"ny":28,"refTime":"2025-05-18T09:00:00:Z","depth":0,"parameterNumber":3,"parameterNumberName":"V-component_of_WINDS"},"data":[0,0,0,0,0,0,0,0,0,0,0,0,0,0,0,0,0,0,0,0,0,0,0,0,0,0,0,0,0,0,0,0,0,0,0,0,0,0,0,0,0,0,0,0,0,0,0,0,0,0,0,0,0,0,0,0,0,0,3.8098,3.8098,0,3.8102,3.8102,3.8102,3.8056,3.8054,3.8053,3.8052,3.8054,3.8055,3.8056,0,0,0,0,0,0,0,0,0,0,0,0,0,3.805,3.8052,3.8098,3.8098,3.8099,3.8102,3.8102,3.8102,3.8056,3.8054,3.8053,3.8051,3.8053,3.8055,3.8056,0,0,0,0,0,0,0,0,0,0,0,0,0,3.8064,3.8052,3.8098,3.8076,3.8074,3.8102,3.8102,3.8102,3.8056,3.8054,3.8052,3.805,3.8053,3.8055,3.8056,3.8106,0,0,3.8062,3.8063,0,0,0,0,0,0,0,0,3.8064,3.8066,3.8079,3.8077,3.8075,3.8076,3.8086,3.8103,3.8057,3.8063,3.8052,3.805,3.8063,3.8064,3.8068,3.8106,3.8106,3.8062,3.8063,3.8064,3.8065,0,0,0,0,0,0,0,3.8063,3.8066,3.81,3.8079,3.8077,3.8065,3.8065,3.8089,3.8073,3.8062,3.8059,3.806,3.8061,3.8067,3.8068,3.8106,3.8062,3.8064,3.8065,3.8066,3.8185,3.8187,0,0,0,0,0,0,3.8065,3.8065,3.81,3.81,3.8065,3.8068,3.8067,3.8078,3.8073,3.807,3.8062,3.8058,3.8064,3.8066,3.8068,3.8126,3.8064,3.8066,3.8067,3.8183,3.8186,3.8188,0,0,0,0,0,0,3.8064,3.8069,3.8099,3.8082,3.8085,3.807,3.8083,3.8079,3.8084,3.8072,3.8069,3.807,3.8063,3.8065,3.8097,3.8126,3.8067,3.8068,3.8181,3.8184,3.8187,3.8243,0,0,0,0,0,0,3.8063,3.8068,3.8087,3.8082,3.8086,3.8129,3.8084,3.808,3.8088,3.8083,3.808,3.8077,3.8062,3.8095,3.8099,3.8127,3.807,3.8178,3.8182,3.8186,3.8238,3.8248,3.8255,0,0,0,0,0,3.8061,3.8102,3.8088,3.8093,3.8109,3.8131,3.8133,3.8115,3.809,3.8109,3.8102,3.8077,3.8122,3.8098,3.8103,3.8132,3.8176,3.8181,3.8185,3.8235,3.8246,3.8255,0,0,0,0,0,0,3.811,3.8101,3.8086,3.8126,3.813,3.8123,3.8146,3.8127,3.8136,3.8131,3.8108,3.8107,3.8143,3.814,3.8114,3.818,3.8145,3.815,3.8181,3.8191,3.8199,3.82,3.8071,0,0,0,0,0,3.8125,3.8144,3.8135,3.8172,3.8175,3.816,3.8169,3.8155,3.8157,3.8158,3.8153,3.8156,3.817,3.818,3.8193,3.8238,3.8237,3.826,3.8268,3.8275,3.8281,3.8305,3.8316,3.8203,3.8203,3.8203,0,0,3.8157,3.8155,3.8168,3.8182,3.8183,3.8203,3.8162,3.8184,3.8199,3.8161,3.8191,3.8188,3.8189,3.8228,3.8245,3.8227,3.8312,3.8281,3.8287,3.8289,3.8311,3.8322,3.8332,3.8206,3.8206,3.8205,0,0,3.8226,3.8226,3.8257,3.826,3.8262,3.8252,3.826,3.8256,3.8253,3.8283,3.8255,3.8272,3.8297,3.83,3.8305,3.8376,3.8354,3.838,3.8425,3.8449,3.8458,3.8466,3.8492,3.8502,3.8386,3.8386,3.8386,0,3.8266,3.8295,3.8276,3.8301,3.8308,3.8276,3.8307,3.831,3.8316,3.8322,3.8301,3.8334,3.8332,3.8372,3.8389,3.8394,3.8402,3.8381,3.8458,3.8466,3.8473,3.8498,3.8508,3.8389,3.8389,3.8388,3.8388,0,3.8344,3.8365,3.839,3.8398,3.8408,3.8436,3.842,3.8432,3.8418,3.841,3.8441,3.8439,3.8451,3.8459,3.8444,3.8497,3.8486,3.8462,3.8427,3.8487,3.851,3.852,3.8394,3.8393,3.8392,3.8391,0,0,3.8443,3.8441,3.8451,3.8455,3.8456,3.8471,3.8498,3.8511,3.8522,3.8527,3.8549,3.8572,3.8551,3.8556,3.8541,3.8563,3.8621,3.8536,3.8536,3.8553,3.868,3.8698,3.871,3.8606,3.8608,3.8609,3.868,0,3.8511,3.8558,3.8542,3.8589,3.8609,3.8579,3.8602,3.8605,3.8599,3.8614,3.8606,3.8624,3.8594,3.8597,3.8616,3.8609,3.8646,3.8604,3.8627,3.8628,3.8629,3.8721,3.8741,3.8808,3.8689,3.869,3.8691,0,3.8597,3.8607,3.8657,3.8656,3.8663,3.8685,3.8696,3.8711,3.8714,3.8708,3.8714,3.8695,3.8721,3.8685,3.8721,3.8693,3.8701,3.8699,3.8701,3.8704,3.8664,3.8727,3.8829,3.8839,3.8705,3.8704,3.8703,0,3.8666,3.8692,3.8726,3.873,3.8729,3.8745,3.8745,3.8746,3.8755,3.8764,3.877,3.8782,3.8789,3.8798,3.8783,3.8758,3.8822,3.8784,3.8818,3.8818,3.8833,3.8832,3.8939,3.8837,3.8837,3.8836,3.8836,0,3.8744,3.8776,3.8757,3.8778,3.8813,3.8794,3.8829,3.8825,3.8827,3.8846,3.882,3.8839,3.8817,3.8834,3.8822,3.8854,3.8857,3.8853,3.8849,3.8856,3.8857,3.8862,3.8857,3.8839,3.8838,3.8838,3.8837,0,3.8828,3.8816,3.8851,3.8848,3.8847,3.8874,3.887,3.8889,3.8881,3.8907,3.8911,3.8899,3.8917,3.8903,3.892,3.8912,3.8955,3.8945,3.8955,3.8952,3.8987,3.8985,3.9101,3.9116,3.9004,3.9005,3.9006,0,3.8879,3.8903,3.8903,3.8915,3.8917,3.8936,3.8945,3.8927,3.8938,3.8944,3.8962,3.8979,3.8991,3.9022,3.9014,3.9027,3.9018,3.9058,3.9019,3.9026,3.902,3.9019,3.9022,3.9066,3.9067,3.9068,3.9069,0,3.8972,3.8965,3.898,3.8994,3.9007,3.9017,3.9024,3.9035,3.9017,3.903,3.9049,3.9059,3.9078,3.9094,3.9106,3.9105,3.9084,3.9081,3.909,3.9097,3.9103,3.9101,3.8977,3.9078,3.9077,3.9077,3.9076,3.9076,3.9041,3.9062,3.9066,3.9084,3.9088,3.9096,3.9114,3.9109,3.9125,3.914,3.9127,3.9151,3.9153,3.9166,3.9168,3.9186,3.917,3.9182,3.9185,3.9189,3.9195,3.9099,3.9188,3.9187,3.9187,3.9187,3.9187,0,3.9134,3.9135,3.9152,3.9164,3.9179,3.9159,3.9166,3.9179,3.9201,3.9205,3.9218,3.9241,3.9257,3.9251,3.9265,3.9281,3.9272,3.9285,3.9285,3.9285,3.9208,3.92,3.9293,3.9293,3.9293,3.9292,3.9292,3.9292,3.9184,3.9218,3.9212,3.9249,3.9249,3.9272,3.9279,3.9286,3.929,3.9316,3.933,3.9326,3.9327,3.9341,3.9356,3.9353,3.936,3.9378,3.9372,3.9301,3.929,3.928,3.9272,3.9379,3.9379,3.9448,3.9449,3.9449]}]]